[[{"header":{"parameterUnit":"m.s-1","parameterCategory":1,"la1":30.2991,"la2":30.254,"lo1":-89.0895,"lo2":-89.0444,"dy":0.0017,"dx":0.0017,"nx":28,"ny":28,"refTime":"2023-08-16T21:00:00:Z","depth":0,"parameterNumber":2,"parameterNumberName":"U-component_of_WINDS"},"data":[0,0,0,0,0,0,0,0,0,0,0,0,0,0,0,0,0,0,0,0,0,0,0,0,0,0,0,0,0,0,0,0,0,0,0,0,0,0,0,0,0,0,0,0,0,0,0,0,0,0,0,0,0,0,0,0,0,0,3.5923,3.5924,0,3.5997,3.5998,3.5999,3.6,3.5999,3.5998,3.5997,3.6074,3.6077,3.6079,0,0,0,0,0,0,0,0,0,0,0,0,0,3.5784,3.5787,3.5923,3.5924,3.5925,3.5997,3.5998,3.5999,3.6,3.5999,3.5998,3.5997,3.6073,3.6076,3.608,0,0,0,0,0,0,0,0,0,0,0,0,0,3.585,3.5788,3.5923,3.5934,3.5936,3.5997,3.5998,3.5999,3.6,3.5999,3.5997,3.5996,3.6072,3.6076,3.608,3.6135,0,0,3.6094,3.6095,0,0,0,0,0,0,0,0,3.5846,3.5855,3.5931,3.5933,3.5935,3.5988,3.5977,3.6045,3.6001,3.5976,3.5997,3.5995,3.6046,3.6053,3.607,3.6139,3.6142,3.6094,3.6097,3.6099,3.61,0,0,0,0,0,0,0,3.5842,3.5852,3.5952,3.5933,3.5935,3.5936,3.5944,3.599,3.6018,3.5978,3.5978,3.5987,3.6047,3.6066,3.6072,3.6143,3.6094,3.6098,3.61,3.6102,3.6264,3.6265,0,0,0,0,0,0,3.5835,3.5848,3.595,3.5955,3.5886,3.594,3.5948,3.5972,3.6018,3.6023,3.5988,3.5987,3.6059,3.6066,3.6074,3.6143,3.6098,3.6103,3.6105,3.6262,3.6264,3.6266,0,0,0,0,0,0,3.5832,3.5844,3.5947,3.5902,3.5915,3.5943,3.5971,3.5975,3.5993,3.6025,3.603,3.6001,3.6058,3.6068,3.6121,3.6146,3.6105,3.6109,3.626,3.6263,3.6265,3.6281,0,0,0,0,0,0,3.5828,3.5843,3.5863,3.5902,3.5917,3.5992,3.5972,3.5977,3.6,3.5999,3.6039,3.6044,3.6058,3.6114,3.6125,3.6151,3.6112,3.6258,3.6261,3.6264,3.6278,3.6283,3.6288,0,0,0,0,0,3.5823,3.5865,3.5864,3.5877,3.5944,3.5993,3.6002,3.6016,3.6002,3.6024,3.6045,3.6043,3.6141,3.6119,3.6132,3.616,3.6257,3.626,3.6264,3.6276,3.6282,3.6288,0,0,0,0,0,0,3.5828,3.587,3.587,3.5926,3.5956,3.5993,3.6021,3.6022,3.6057,3.6054,3.6071,3.608,3.6132,3.6151,3.6126,3.6216,3.6197,3.6204,3.6202,3.6209,3.6213,3.6208,3.6116,0,0,0,0,0,3.5836,3.5872,3.5907,3.5952,3.5968,3.5992,3.6014,3.6022,3.6054,3.6067,3.6091,3.6123,3.6161,3.6186,3.6222,3.6281,3.629,3.6306,3.6311,3.6315,3.632,3.6354,3.6362,3.6278,3.6278,3.6278,0,0,3.5852,3.5879,3.5901,3.5954,3.5979,3.6017,3.6002,3.6043,3.6071,3.6073,3.6124,3.6144,3.618,3.6236,3.6262,3.6254,3.6346,3.632,3.6323,3.6326,3.6359,3.6367,3.6374,3.6281,3.628,3.628,0,0,3.5901,3.5925,3.5966,3.5991,3.6029,3.6044,3.6054,3.6092,3.6105,3.6157,3.6159,3.6194,3.6259,3.6285,3.6307,3.6368,3.6368,3.6379,3.6405,3.6438,3.6445,3.6451,3.6473,3.6481,3.6384,3.6384,3.6385,0,3.5917,3.5974,3.5987,3.6029,3.6052,3.6056,3.6099,3.6122,3.6169,3.6186,3.6176,3.6258,3.6283,3.6346,3.6361,3.6378,3.6391,3.6375,3.6442,3.6449,3.6454,3.6476,3.6485,3.6386,3.6386,3.6385,3.6385,0,3.5992,3.6031,3.606,3.6106,3.6133,3.6175,3.6196,3.6222,3.6228,3.6245,3.6299,3.6329,3.6372,3.6388,3.6394,3.6452,3.6446,3.6439,3.642,3.6463,3.6484,3.6493,3.6387,3.6387,3.6387,3.6386,0,0,3.6046,3.61,3.611,3.6132,3.6174,3.6205,3.6247,3.629,3.6312,3.6345,3.6382,3.6437,3.6432,3.6456,3.6466,3.6495,3.6543,3.6484,3.6485,3.6495,3.661,3.6616,3.6625,3.6543,3.6545,3.6546,3.6608,0,3.61,3.6175,3.619,3.6255,3.6293,3.6297,3.6334,3.6365,3.6382,3.6417,3.6437,3.6476,3.6465,3.648,3.6509,3.6531,3.6566,3.6526,3.6578,3.658,3.657,3.6636,3.6642,3.6699,3.6616,3.6617,3.6618,0,3.6174,3.6209,3.6278,3.6317,3.6333,3.6366,3.6407,3.644,3.6475,3.6486,3.6514,3.6521,3.6566,3.6545,3.6608,3.6581,3.6603,3.6617,3.662,3.6626,3.6602,3.6645,3.6717,3.6726,3.6631,3.663,3.6629,0,3.6208,3.6273,3.6323,3.6341,3.6386,3.641,3.643,3.6463,3.6489,3.6525,3.6541,3.6582,3.6605,3.6637,3.6654,3.6637,3.6717,3.6697,3.6728,3.6728,3.6745,3.6744,3.6823,3.6758,3.6758,3.6758,3.6758,0,3.6268,3.6311,3.6339,3.637,3.6418,3.6435,3.6482,3.6502,3.6532,3.6568,3.6574,3.6607,3.6629,3.6665,3.668,3.6731,3.6741,3.6752,3.6755,3.6752,3.675,3.6767,3.6764,3.676,3.676,3.6759,3.6759,0,3.6315,3.6335,3.639,3.6429,3.644,3.6474,3.6508,3.6538,3.6556,3.6601,3.6613,3.6641,3.6685,3.6706,3.676,3.677,3.6828,3.6829,3.6816,3.6818,3.6848,3.6846,3.6941,3.6955,3.688,3.6881,3.6881,0,3.6352,3.6385,3.6427,3.6452,3.6472,3.6511,3.6537,3.6555,3.6582,3.6625,3.6651,3.6695,3.6731,3.6801,3.6827,3.6869,3.6871,3.6901,3.6877,3.6873,3.6873,3.6871,3.6875,3.6906,3.6907,3.6907,3.6908,0,3.6417,3.6425,3.6462,3.6503,3.6534,3.6567,3.6599,3.6619,3.6642,3.6672,3.6717,3.6745,3.6801,3.6845,3.6889,3.6911,3.6914,3.6915,3.6925,3.6922,3.6914,3.692,3.6829,3.6913,3.6912,3.6912,3.6912,3.6912,3.6461,3.6491,3.6525,3.6567,3.6593,3.6624,3.6655,3.6677,3.6714,3.6761,3.6769,3.6817,3.6853,3.6912,3.6935,3.6974,3.6967,3.698,3.6984,3.6987,3.699,3.6907,3.6982,3.6982,3.6981,3.6981,3.6981,0,3.6527,3.6549,3.6587,3.6633,3.6665,3.6665,3.6701,3.6729,3.6771,3.6803,3.6839,3.6891,3.6935,3.6964,3.7008,3.7033,3.7036,3.7044,3.7043,3.7048,3.6993,3.698,3.7042,3.7042,3.7042,3.7042,3.7042,3.7041,3.6565,3.6616,3.6629,3.6694,3.6716,3.6763,3.6784,3.6813,3.6839,3.6897,3.6933,3.6952,3.6984,3.703,3.707,3.7078,3.7094,3.7103,3.7111,3.7058,3.7052,3.7046,3.7035,3.7106,3.7106,3.7163,3.7164,3.7164]},{"header":{"parameterUnit":"m.s-1","parameterCategory":1,"la1":30.2991,"la2":30.254,"lo1":-89.0895,"lo2":-89.0444,"dy":0.0017,"dx":0.0017,"nx":28,"ny":28,"refTime":"2023-08-16T21:00:00:Z","depth":0,"parameterNumber":3,"parameterNumberName":"V-component_of_WINDS"},"data":[0,0,0,0,0,0,0,0,0,0,0,0,0,0,0,0,0,0,0,0,0,0,0,0,0,0,0,0,0,0,0,0,0,0,0,0,0,0,0,0,0,0,0,0,0,0,0,0,0,0,0,0,0,0,0,0,0,0,-0.4491,-0.4492,0,-0.4545,-0.4546,-0.4547,-0.4561,-0.456,-0.456,-0.456,-0.4617,-0.4619,-0.4621,0,0,0,0,0,0,0,0,0,0,0,0,0,-0.4404,-0.4405,-0.4491,-0.4492,-0.4493,-0.4545,-0.4546,-0.4547,-0.4561,-0.456,-0.456,-0.456,-0.4617,-0.4619,-0.4621,0,0,0,0,0,0,0,0,0,0,0,0,0,-0.4448,-0.4406,-0.4491,-0.4506,-0.4508,-0.4545,-0.4546,-0.4547,-0.4561,-0.456,-0.456,-0.4559,-0.4616,-0.4619,-0.4621,-0.4648,0,0,-0.463,-0.4631,0,0,0,0,0,0,0,0,-0.4446,-0.4451,-0.4503,-0.4505,-0.4507,-0.4546,-0.4536,-0.4581,-0.4561,-0.4541,-0.456,-0.4559,-0.4594,-0.4599,-0.461,-0.4651,-0.4653,-0.463,-0.4632,-0.4633,-0.4634,0,0,0,0,0,0,0,-0.4442,-0.4449,-0.4513,-0.4504,-0.4506,-0.4511,-0.4517,-0.4545,-0.457,-0.4543,-0.4544,-0.455,-0.4595,-0.4607,-0.4611,-0.4654,-0.463,-0.4632,-0.4634,-0.4635,-0.4722,-0.4723,0,0,0,0,0,0,-0.4436,-0.4446,-0.4511,-0.4514,-0.4474,-0.4513,-0.4519,-0.4534,-0.4569,-0.4574,-0.455,-0.455,-0.4603,-0.4608,-0.4613,-0.4649,-0.4633,-0.4635,-0.4637,-0.4722,-0.4722,-0.4723,0,0,0,0,0,0,-0.4435,-0.4442,-0.4509,-0.4481,-0.449,-0.4515,-0.4531,-0.4535,-0.4547,-0.4575,-0.458,-0.4558,-0.4602,-0.4609,-0.464,-0.4651,-0.4637,-0.4639,-0.4721,-0.4722,-0.4723,-0.4718,0,0,0,0,0,0,-0.4432,-0.4441,-0.4451,-0.4481,-0.4491,-0.4533,-0.4532,-0.4537,-0.4552,-0.4552,-0.4583,-0.4588,-0.4603,-0.4636,-0.4643,-0.4654,-0.4641,-0.472,-0.4721,-0.4723,-0.4718,-0.4719,-0.472,0,0,0,0,0,-0.4429,-0.4448,-0.4451,-0.4459,-0.4503,-0.4534,-0.454,-0.4556,-0.4553,-0.4563,-0.4581,-0.4587,-0.4648,-0.4639,-0.4646,-0.4659,-0.4719,-0.4721,-0.4722,-0.4717,-0.4719,-0.472,0,0,0,0,0,0,-0.4419,-0.4452,-0.4456,-0.4485,-0.4507,-0.4536,-0.455,-0.4557,-0.458,-0.458,-0.4599,-0.4606,-0.4635,-0.465,-0.4639,-0.4688,-0.4684,-0.4687,-0.4677,-0.4679,-0.468,-0.4676,-0.4644,0,0,0,0,0,-0.442,-0.4441,-0.4469,-0.4492,-0.4502,-0.4524,-0.4538,-0.4548,-0.4572,-0.4581,-0.4601,-0.4624,-0.4649,-0.4665,-0.4689,-0.472,-0.4728,-0.4733,-0.4734,-0.4735,-0.4738,-0.4757,-0.476,-0.4728,-0.4728,-0.4728,0,0,-0.4422,-0.4443,-0.4455,-0.449,-0.4508,-0.4531,-0.4532,-0.4555,-0.4573,-0.4585,-0.4615,-0.4631,-0.4658,-0.4689,-0.4704,-0.4702,-0.4748,-0.4737,-0.4737,-0.474,-0.4759,-0.4762,-0.4764,-0.4729,-0.4729,-0.4729,0,0,-0.4439,-0.4456,-0.4478,-0.4496,-0.4523,-0.4537,-0.4542,-0.4571,-0.4582,-0.4612,-0.4623,-0.4644,-0.4685,-0.4705,-0.472,-0.4745,-0.4752,-0.4753,-0.476,-0.4778,-0.4781,-0.4783,-0.4794,-0.4797,-0.4755,-0.4755,-0.4755,0,-0.4439,-0.4473,-0.4488,-0.4511,-0.4527,-0.4539,-0.4562,-0.4579,-0.4612,-0.4624,-0.4622,-0.4675,-0.4694,-0.4731,-0.4737,-0.4748,-0.4756,-0.475,-0.4779,-0.4782,-0.4784,-0.4794,-0.4798,-0.4755,-0.4755,-0.4755,-0.4755,0,-0.4472,-0.4495,-0.451,-0.4542,-0.4559,-0.4582,-0.4602,-0.4618,-0.4627,-0.4643,-0.4674,-0.4698,-0.4727,-0.4737,-0.4746,-0.4775,-0.4774,-0.4775,-0.4772,-0.4787,-0.4797,-0.4801,-0.4755,-0.4755,-0.4755,-0.4755,0,0,-0.4484,-0.4524,-0.453,-0.4545,-0.4576,-0.4595,-0.4619,-0.4647,-0.4662,-0.4685,-0.4706,-0.4742,-0.4744,-0.4761,-0.4773,-0.4789,-0.4809,-0.4788,-0.4789,-0.4793,-0.4845,-0.4844,-0.4849,-0.4814,-0.4814,-0.4815,-0.4843,0,-0.4505,-0.4548,-0.4563,-0.4599,-0.4621,-0.4633,-0.4655,-0.4677,-0.4692,-0.4714,-0.4732,-0.4757,-0.4757,-0.4767,-0.4784,-0.4803,-0.482,-0.4801,-0.4836,-0.4837,-0.4829,-0.4854,-0.4853,-0.4878,-0.4847,-0.4848,-0.4848,0,-0.4535,-0.4559,-0.4597,-0.4626,-0.4636,-0.4655,-0.4683,-0.4704,-0.473,-0.474,-0.476,-0.4771,-0.4798,-0.4792,-0.4831,-0.4818,-0.4833,-0.4845,-0.4846,-0.4851,-0.4844,-0.486,-0.4886,-0.4891,-0.4854,-0.4854,-0.4853,0,-0.4542,-0.4582,-0.4611,-0.4623,-0.4658,-0.4671,-0.4687,-0.4712,-0.4729,-0.4754,-0.4765,-0.4793,-0.4809,-0.4831,-0.4849,-0.4843,-0.4887,-0.4882,-0.4898,-0.4897,-0.4907,-0.4906,-0.4937,-0.4915,-0.4915,-0.4914,-0.4914,0,-0.4564,-0.4587,-0.4614,-0.4632,-0.4659,-0.4677,-0.4703,-0.4719,-0.4742,-0.4764,-0.4776,-0.4796,-0.4819,-0.4843,-0.4858,-0.4889,-0.4895,-0.4905,-0.4909,-0.4905,-0.4904,-0.4916,-0.4915,-0.4916,-0.4915,-0.4915,-0.4915,0,-0.4576,-0.4595,-0.4627,-0.4657,-0.4665,-0.4684,-0.4711,-0.4729,-0.4745,-0.4773,-0.478,-0.4806,-0.4835,-0.4855,-0.4892,-0.4902,-0.4936,-0.4939,-0.4927,-0.4929,-0.4944,-0.4943,-0.4984,-0.4992,-0.4963,-0.4963,-0.4963,0,-0.459,-0.4608,-0.464,-0.4655,-0.4671,-0.4695,-0.4712,-0.4731,-0.4749,-0.478,-0.4795,-0.4825,-0.485,-0.4896,-0.4918,-0.4947,-0.4952,-0.4965,-0.4957,-0.4952,-0.4954,-0.4953,-0.4956,-0.4966,-0.4966,-0.4967,-0.4967,0,-0.4613,-0.4621,-0.4645,-0.4672,-0.4693,-0.4715,-0.4738,-0.475,-0.4773,-0.4793,-0.4822,-0.4842,-0.488,-0.491,-0.4941,-0.4958,-0.4967,-0.4969,-0.4974,-0.4971,-0.4963,-0.4969,-0.4932,-0.4968,-0.4968,-0.4968,-0.4968,-0.4968,-0.4627,-0.4644,-0.467,-0.4696,-0.4715,-0.4737,-0.4756,-0.4774,-0.4799,-0.4831,-0.4841,-0.4872,-0.49,-0.4943,-0.496,-0.4986,-0.4985,-0.4992,-0.4994,-0.4996,-0.4997,-0.4958,-0.4991,-0.4991,-0.4991,-0.4991,-0.4991,0,-0.4651,-0.4669,-0.4693,-0.4725,-0.4746,-0.4751,-0.4777,-0.4795,-0.4822,-0.4846,-0.4871,-0.4905,-0.4935,-0.496,-0.4991,-0.5007,-0.5011,-0.5014,-0.5014,-0.5018,-0.4995,-0.4988,-0.501,-0.501,-0.501,-0.501,-0.501,-0.501,-0.4667,-0.4697,-0.4708,-0.4749,-0.4766,-0.4796,-0.4811,-0.4831,-0.4851,-0.4889,-0.4913,-0.4929,-0.4954,-0.4987,-0.5015,-0.5022,-0.5033,-0.5035,-0.5043,-0.5021,-0.5019,-0.5017,-0.5011,-0.5037,-0.5037,-0.5064,-0.5065,-0.5065]}]]